Starlink 3588

operational
NORAD ID: 51869 Int'l Des: 2022-022 Owner: SPXS Country: US Constellation: starlink
LEOCIRCULAR

About Starlink 3588

Description loading...

Live Position

Loading 3D Globe...

Upcoming Passes

Altitude History

Altitude vs Time

uPlot chart will show altitude changes over time

Two-Line Element Set

1 51869U 22022T 25349.82440404 -.00001945 00000-0 -10419-3 0 9995
2 51869 53.2187 25.6073 0001265 90.4294 269.6843 15.08825723210453
Epoch: Dec 15, 2025 • Age: 16 hours

Current Status

Altitude 541.9 km
Velocity 7.60 km/s
Sub-Earth Point 35.64°N, 151.1°E
Launch Date Mar 3, 2022
Age 3.7 years
Type internet

Technical Details

Classification Payload
Mass 297.00 kg
Dry Mass 275.00 kg
Total Mass 297.00 kg
Length 0.20 m
Diameter 2.80 m
Span 9.00 m
Shape Box + pan
Manufacturer SPXS
Bus Type Starlink
Phase Status In Orbit
Owner/State SPXS/US

Large Constellations

Loading constellations...